Wind_Speed
40 40 39 39 38 37 37 36 35 35 36 37 39 39 41 41 41 43 43 43 42 42 42 42 40 39 37 35 34 32 31 30 29 28 27 27 26 26
39 40 41 41 40 39 39 38 37 37 37 38 40 40 41 42 42 43 44 43 43 44 43 42 41 40 37 36 34 33 31 30 28 27 27 26 25 25
38 39 41 42 42 41 41 40 39 38 38 39 41 42 41 42 42 43 44 45 45 45 44 43 42 39 37 36 34 33 31 30 28 27 26 26 25 24
37 38 40 42 43 44 43 43 42 41 40 39 41 43 43 43 43 43 44 46 46 45 44 44 42 40 38 37 36 34 32 30 29 27 26 25 24 23
36 37 38 41 42 44 45 46 46 45 43 41 41 42 44 44 44 44 45 46 46 46 45 44 43 41 39 38 36 35 33 31 29 28 25 24 23 22
36 37 39 40 42 44 46 47 48 48 47 46 44 44 44 46 45 45 45 46 47 47 47 45 44 42 41 40 38 36 34 32 29 27 25 24 23 21
37 38 40 41 43 45 46 48 49 50 50 49 48 46 45 47 46 46 47 47 48 49 48 47 46 45 44 41 39 37 35 33 30 28 26 24 22 21
38 39 40 41 43 46 47 49 51 52 53 53 52 51 48 48 48 48 48 49 48 49 49 49 48 47 45 43 41 39 36 34 31 29 27 24 22 21
37 39 40 41 43 45 47 50 52 53 55 56 55 54 52 51 50 50 49 49 50 50 51 51 50 48 47 45 43 40 37 35 32 30 27 25 23 21
36 37 39 40 42 44 46 49 51 54 56 57 57 57 57 55 52 51 50 50 50 51 52 52 51 50 49 47 44 41 39 36 34 31 28 25 23 21
36 37 38 39 41 44 45 47 50 53 57 59 60 60 60 58 56 54 52 50 50 51 52 53 52 51 50 49 47 44 41 38 35 33 30 26 24 22
34 35 36 37 39 42 44 47 49 52 56 59 61 62 62 60 59 57 54 51 51 52 52 53 53 53 52 50 48 46 43 40 37 34 31 28 25 23
31 32 33 34 36 39 41 44 47 52 56 59 61 63 64 63 61 59 57 54 52 53 52 52 53 54 53 51 49 47 45 43 40 36 33 30 27 24
29 28 28 28 30 32 35 40 45 49 53 56 59 63 65 65 63 62 60 56 54 54 54 53 54 55 55 54 52 50 48 45 42 39 35 32 29 26
25 23 22 23 24 25 28 33 40 45 50 53 57 60 64 65 65 64 62 59 55 54 54 55 54 55 57 56 55 53 50 48 44 41 38 34 31 29
21 19 18 18 19 20 22 27 33 39 45 49 53 57 61 64 66 66 64 62 57 55 54 55 55 55 56 57 56 55 53 50 47 44 40 37 34 31
18 16 15 14 14 14 16 20 26 32 39 45 50 54 57 60 63 65 65 63 60 57 56 56 56 56 57 58 57 56 54 51 48 45 42 39 36 33
16 14 13 12 11 10 12 16 20 26 32 38 44 48 52 55 58 62 64 63 61 59 57 55 55 55 56 57 57 56 54 52 50 47 44 41 38 36
14 13 12 10 8 7 8 11 15 20 26 31 37 42 46 50 54 58 61 61 60 58 57 56 55 54 54 55 55 54 53 52 50 48 46 43 41 38
13 12 11 8 5 4 5 9 13 17 22 25 31 36 41 45 49 54 57 59 59 57 56 56 54 52 51 53 53 53 53 52 51 50 48 46 43 40
13 11 9 7 5 4 4 7 12 15 18 21 26 31 35 40 44 49 54 56 56 55 54 54 54 52 50 52 53 53 53 53 52 51 50 48 44 42
12 10 8 6 5 5 5 7 10 13 16 19 22 27 31 36 41 46 49 52 53 53 53 53 53 52 50 49 51 51 52 52 52 51 49 48 45 43
11 9 7 6 5 5 6 8 10 13 15 17 20 25 29 33 38 43 47 48 50 51 51 52 51 51 50 49 48 49 49 50 50 49 47 47 46 44
Wind_Direction
261 257 253 250 248 246 245 243 240 236 233 230 228 225 223 223 223 223 222 222 223 223 223 223 224 225 226 227 227 227 229 230 231 233 235 236 239 240
261 256 252 249 247 244 242 241 239 236 234 232 230 228 224 221 221 221 221 221 221 221 220 221 222 223 223 224 224 225 225 226 229 231 233 235 237 239
262 257 253 249 246 244 241 240 238 236 234 233 232 229 226 222 220 220 220 219 219 218 219 219 219 220 220 222 221 221 221 224 226 228 230 232 236 239
263 257 252 250 247 244 241 239 237 236 234 233 233 230 228 225 221 219 219 217 218 217 217 217 218 218 219 219 219 218 220 221 223 225 228 231 234 238
264 259 253 250 247 245 242 240 238 236 234 232 231 230 228 224 223 220 218 217 216 216 215 216 217 217 217 217 216 217 218 220 222 223 226 230 232 235
266 261 256 252 249 246 243 240 238 236 234 232 230 229 228 226 224 222 219 217 215 215 214 215 215 216 216 215 214 216 217 218 219 221 223 226 229 233
269 264 259 255 251 247 244 241 238 236 234 232 230 229 227 226 225 223 219 217 216 215 214 214 215 215 214 213 213 214 215 215 216 219 221 224 228 232
271 267 262 257 252 248 245 241 239 236 233 231 230 229 227 225 224 221 219 218 217 215 214 214 215 214 213 212 212 212 213 214 215 217 220 223 227 231
274 269 264 259 254 249 245 242 238 235 233 231 229 229 227 225 223 220 218 219 217 216 215 214 214 213 213 212 211 212 212 212 214 216 218 221 226 230
277 272 267 262 257 251 246 242 239 235 232 230 228 228 226 224 222 220 218 217 217 217 216 214 213 213 212 211 211 212 212 212 213 215 217 220 225 231
281 276 270 265 259 253 247 242 238 235 232 229 227 226 225 224 222 220 217 218 217 216 216 214 213 212 212 211 211 212 212 212 213 215 217 220 225 231
285 279 273 267 260 255 249 243 238 234 231 229 226 225 224 223 221 220 217 217 217 216 215 214 214 213 212 212 212 212 212 213 214 215 217 221 225 230
290 283 276 270 263 258 251 243 236 232 229 227 225 224 222 221 220 219 217 216 217 215 213 214 214 213 212 212 213 213 213 213 214 216 218 221 225 230
296 288 280 273 267 259 251 242 236 231 228 226 224 222 221 220 218 218 217 217 217 214 212 213 213 213 212 212 213 213 214 215 216 217 220 222 226 231
303 294 286 279 271 260 249 241 234 229 226 224 222 221 219 218 217 216 216 215 215 214 214 213 212 212 213 213 213 213 215 216 217 219 221 223 227 232
310 302 296 288 276 262 249 240 232 227 224 222 220 219 218 217 216 214 214 214 213 213 214 213 212 212 213 213 213 214 215 217 218 220 223 226 229 233
317 311 304 296 286 265 248 235 228 222 220 220 219 218 217 216 215 214 213 214 213 213 214 212 212 212 213 213 214 215 216 218 220 222 225 228 231 235
321 318 312 304 292 271 247 232 224 218 216 217 217 216 216 215 214 213 213 214 213 213 215 214 211 212 213 214 215 216 217 219 222 224 227 230 233 236
322 320 315 308 296 269 243 225 215 211 209 211 213 214 214 214 214 212 211 212 213 213 213 213 212 212 213 213 215 217 219 220 222 225 228 230 233 236
322 319 319 311 290 263 236 214 205 202 202 208 210 212 213 213 212 211 210 210 212 212 212 211 211 211 213 213 215 217 219 221 223 225 228 230 233 236
322 320 314 304 280 255 232 209 201 201 202 204 206 207 208 209 209 209 208 209 210 211 212 212 212 211 214 214 215 217 218 220 222 224 227 230 232 235
315 314 312 302 276 247 224 209 204 204 203 202 202 203 203 204 204 204 205 206 207 209 211 210 211 212 214 215 215 216 217 219 222 225 228 230 232 234
313 308 304 293 275 246 225 212 206 204 204 202 201 200 199 198 199 201 202 204 204 206 208 208 208 209 210 213 215 215 216 218 220 223 226 229 231 233
Height
5722 5724 5726 5728 5730 5733 5736 5739 5743 5746 5750 5754 5758 5762 5767 5773 5778 5784 5790 5796 5803 5809 5815 5821 5826 5832 5837 5842 5846 5851 5855 5859 5863 5866 5870 5873 5876 5878
5710 5712 5714 5716 5719 5722 5725 5729 5733 5737 5741 5745 5748 5753 5758 5763 5769 5775 5781 5787 5794 5800 5807 5813 5819 5824 5830 5835 5840 5845 5849 5853 5857 5861 5864 5867 5870 5873
5698 5699 5701 5704 5707 5710 5714 5718 5722 5727 5732 5735 5739 5743 5748 5754 5759 5766 5772 5779 5785 5792 5798 5805 5811 5817 5823 5828 5833 5838 5843 5848 5852 5855 5859 5862 5865 5868
5685 5687 5689 5691 5695 5698 5702 5707 5711 5716 5721 5726 5729 5734 5739 5744 5750 5756 5763 5769 5776 5783 5790 5797 5803 5810 5816 5822 5827 5833 5837 5842 5846 5850 5854 5857 5860 5863
5673 5674 5676 5678 5681 5685 5689 5694 5699 5704 5710 5715 5719 5724 5729 5735 5741 5747 5753 5760 5767 5774 5781 5788 5796 5802 5809 5815 5821 5827 5832 5836 5841 5845 5848 5852 5855 5857
5660 5661 5663 5665 5668 5671 5676 5680 5685 5691 5697 5703 5708 5713 5719 5725 5731 5737 5744 5751 5758 5765 5773 5780 5787 5794 5801 5808 5814 5820 5825 5830 5835 5839 5843 5847 5850 5852
5647 5647 5649 5651 5654 5657 5661 5666 5671 5677 5684 5690 5697 5702 5708 5715 5721 5727 5734 5741 5748 5756 5764 5772 5779 5787 5794 5801 5808 5814 5819 5825 5829 5834 5838 5842 5845 5847
5633 5632 5633 5636 5638 5642 5646 5651 5656 5663 5670 5677 5684 5690 5697 5704 5710 5717 5724 5732 5740 5748 5755 5763 5771 5778 5786 5794 5800 5807 5813 5819 5824 5828 5833 5836 5840 5843
5618 5617 5618 5620 5622 5625 5629 5634 5640 5647 5654 5662 5670 5677 5684 5692 5700 5707 5714 5722 5730 5738 5745 5753 5762 5770 5779 5786 5793 5800 5807 5812 5818 5822 5827 5831 5835 5838
5604 5603 5603 5604 5606 5609 5613 5618 5624 5631 5638 5647 5655 5663 5670 5678 5687 5695 5703 5711 5719 5727 5735 5744 5753 5762 5770 5778 5786 5793 5800 5806 5811 5817 5821 5825 5829 5832
5590 5588 5588 5588 5589 5592 5596 5602 5608 5614 5620 5629 5638 5647 5656 5665 5675 5683 5692 5700 5708 5717 5726 5735 5744 5753 5761 5770 5778 5786 5793 5799 5805 5810 5815 5819 5823 5827
5576 5574 5572 5572 5573 5575 5579 5584 5591 5597 5603 5612 5621 5631 5641 5651 5662 5671 5681 5690 5698 5707 5716 5726 5735 5744 5753 5762 5770 5778 5786 5792 5798 5804 5809 5813 5818 5821
5563 5560 5558 5557 5557 5559 5562 5567 5573 5578 5585 5595 5604 5615 5626 5637 5649 5659 5669 5678 5688 5698 5707 5716 5725 5735 5745 5754 5763 5771 5778 5785 5791 5797 5802 5807 5811 5815
5551 5548 5545 5544 5544 5544 5546 5550 5555 5562 5570 5579 5589 5600 5612 5623 5635 5646 5656 5666 5676 5686 5695 5705 5715 5725 5735 5744 5753 5761 5769 5776 5783 5790 5795 5800 5805 5809
5542 5538 5536 5534 5533 5533 5534 5537 5541 5548 5557 5566 5576 5586 5597 5608 5620 5632 5644 5655 5665 5674 5684 5695 5705 5714 5724 5734 5743 5752 5760 5768 5775 5782 5788 5794 5798 5802
5535 5532 5529 5526 5525 5524 5525 5527 5531 5537 5545 5554 5563 5572 5583 5595 5607 5620 5632 5644 5654 5664 5674 5684 5694 5705 5715 5725 5734 5743 5752 5760 5768 5775 5781 5787 5792 5796
5531 5527 5524 5522 5519 5518 5519 5520 5524 5529 5535 5543 5552 5562 5572 5584 5596 5608 5620 5632 5644 5654 5664 5675 5684 5694 5705 5715 5725 5734 5743 5752 5760 5767 5774 5779 5784 5789
5527 5524 5521 5518 5516 5515 5515 5516 5519 5523 5529 5535 5544 5553 5563 5574 5585 5597 5609 5622 5633 5645 5655 5665 5676 5686 5696 5706 5716 5726 5735 5744 5752 5759 5766 5772 5777 5782
5525 5522 5519 5516 5514 5513 5513 5514 5516 5520 5525 5531 5539 5547 5556 5566 5577 5588 5600 5612 5623 5635 5646 5656 5667 5678 5688 5699 5709 5718 5727 5735 5743 5750 5757 5763 5769 5774
5523 5520 5517 5515 5514 5513 5512 5513 5515 5518 5523 5528 5534 5542 5550 5559 5569 5580 5592 5603 5615 5626 5637 5648 5659 5670 5681 5691 5700 5708 5717 5725 5733 5740 5747 5753 5760 5766
5521 5518 5516 5514 5513 5513 5512 5513 5515 5518 5522 5526 5532 5538 5545 5554 5563 5573 5584 5595 5607 5619 5630 5641 5651 5661 5670 5679 5689 5697 5706 5714 5722 5730 5737 5744 5751 5757
5518 5516 5515 5513 5512 5512 5512 5513 5515 5517 5520 5524 5529 5535 5542 5549 5558 5568 5578 5589 5600 5612 5622 5632 5642 5652 5663 5672 5681 5689 5697 5705 5713 5721 5729 5736 5742 5748
5516 5514 5513 5512 5512 5512 5512 5513 5514 5517 5519 5523 5527 5533 5539 5546 5554 5563 5572 5583 5593 5604 5614 5625 5635 5644 5654 5663 5672 5680 5688 5696 5704 5712 5720 5726 5733 5739